Location: Izdebno
(52.6670°N, 16.2170°E)
Time: 05:37:24
(UTC+02:00)

Vanguard 1 - Pass Details

Date: 24 February 2024
Orbit: 653 x 3825 km, 34.2° (Epoch: 22 April)

Event Time Altitude Azimuth Distance (km) Brightness Sun altitude
Rises 22:23:52 0° 254° (WSW) 6,355 14.4 -41.8°
Reaches altitude 10° 22:27:48 10° 248° (WSW) 5,701 14.0 -42.2°
Enters shadow 22:40:08 40° 211° (SSW) 4,508 13.0 -43.2°
